Location: Gollag?dem
(17.0207°N, 80.7261°E)
Time: 15:05:27
(UTC+00:00)

Cosmos 2369 Rocket - Pass Details

Date: 03 August 2024
Orbit: 826 x 853 km, 71.0° (Epoch: 12 September)

Event Time Altitude Azimuth Distance (km) Brightness Sun altitude
Rises 14:47:10 0° 211° (SSW) 3,351 5.4 -22.5°
Reaches altitude 10° 14:49:42 10° 218° (SW) 2,420 4.7 -23.1°
Maximum altitude 14:54:56 43° 289° (WNW) 1,146 3.3 -24.2°
Drops below altitude 10° 15:00:12 10° 360° (N) 2,433 4.9 -25.3°
Sets 15:02:46 0° 7° (N) 3,371 5.6 -25.8°
